Машук

Россия / Ставропольский край     44°03′00″N   43°05′17″E
темп.,
°C
ветер,
м/с
пор.,
м/с
влажн.,
%
обл.,
%
осадки,
мм/ч
давл.,
гПа
погр.,
м
12 мая, ср
ср1200:00+6юв238211 0.0 101671
03:00+5ю11865 0.0 101618
06:00+6юз01820 0.0 101756
09:00+11всв32660 0.0 1016685
12:00+14в55607 0.0 10161123
15:00+16в55587 0.0 10151219
18:00+14вюв476913 0.0 1015745
21:00+9ююв36873 0.0 1015107
13 мая, чт
чт1300:00+9ююв33820 0.0 101344
03:00+9ююз11620 0.0 101310
06:00+11ююз11540 0.0 101412
09:00+17в22540 0.0 1013436
12:00+20в44580 0.0 1014819
15:00+21вюв4556100 0.0 1013895
18:00+19вюв36705 0.0 1014443
21:00+14ююв34870 0.0 101551
14 мая, пт
пт1400:00+14ююв22855 0.0 101420
03:00+13ю2165100 0.0 101411
06:00+15ю115530 0.0 101413
09:00+22в22450 0.0 1013297
12:00+25в32420 0.0 1012702
15:00+25вюв55512 0.0 1012907
18:00+22вюв36692 0.0 1012295
21:00+17ю22845 0.0 101329
15 мая, сб
сб1500:00+17ююз22712 0.0 101212
03:00+16юз22525 0.0 101212
06:00+17зюз22555 0.0 101324
09:00+24сз464738 0.0 1012812
12:00+25сз555113 0.0 10131276
15:00+26ссз335169 0.0 10121589
18:00+23всв1167100 0.1 101226
21:00+18ююз2280100 0.6 101321
16 мая, вс
вс1600:00+17ююз2270100 0.0 101215
03:00+16ююз217449 0.0 101111
06:00+17ю117618 0.0 101023
09:00+22вюв46660 0.0 1008612
12:00+24вюв710635 0.0 10071149
15:00+24вюв79575 0.0 10051229
18:00+22вюв59675 0.0 1004564
21:00+16юв3477100 0.2 100594